Wind_Speed
58 61 63 65 66 68 69 70 70 70 70 70 70 70 70 69 69 69 69 69 69 69 69 69 69 70 70 69 68 68 67 66 66 65 64 64 63 62 61 60 58 57 56
64 67 69 72 73 75 75 75 75 75 75 75 75 75 75 75 75 75 74 74 74 74 74 74 74 74 74 73 73 72 72 71 70 69 69 68 66 65 65 65 64 62 61
71 74 77 79 80 81 80 80 80 80 80 80 80 80 80 79 80 80 80 80 80 80 80 80 80 80 79 79 78 77 77 76 74 74 73 72 70 68 67 67 67 66 65
77 80 81 82 83 83 83 83 83 83 82 81 81 80 81 81 81 81 82 82 83 84 84 84 85 84 84 84 83 82 81 81 79 78 77 76 75 72 70 68 68 67 67
80 81 82 82 82 82 81 80 78 76 75 73 72 71 70 70 70 71 72 73 75 78 80 81 84 85 85 86 86 85 85 84 84 82 81 80 79 77 75 72 71 70 68
79 79 78 78 76 74 71 68 65 62 60 58 56 54 52 50 48 48 49 51 54 58 61 65 69 72 76 79 81 83 84 85 85 85 84 83 82 81 80 77 75 73 72
77 75 72 70 66 62 58 56 54 51 49 47 45 42 39 36 34 32 32 34 36 39 42 45 49 54 59 64 69 74 78 81 83 84 85 84 84 84 84 82 80 78 76
71 68 65 61 57 53 51 49 47 46 44 41 39 36 33 30 29 28 27 27 28 30 33 35 38 42 46 51 56 61 67 72 76 79 82 83 83 84 84 84 84 82 80
64 60 57 54 51 48 47 46 45 44 42 39 36 34 32 30 28 27 26 26 26 27 29 31 33 35 38 41 44 49 55 62 67 71 74 77 78 79 80 82 84 85 83
57 54 51 48 47 46 46 46 45 43 41 39 37 34 32 30 29 28 28 28 28 29 30 31 32 34 36 37 39 41 45 50 56 62 66 66 66 65 67 72 75 78 81
52 50 48 47 47 47 47 46 44 43 42 40 38 36 34 33 32 31 31 30 30 31 32 33 34 35 36 37 37 38 38 41 44 49 53 55 55 56 57 60 63 66 70
50 49 48 48 48 48 47 47 46 44 43 42 40 39 37 36 35 35 34 34 34 34 35 35 36 37 37 37 37 36 36 36 36 39 44 48 51 53 55 55 56 57 58
49 49 50 50 50 50 50 49 48 47 46 45 44 43 42 41 41 40 39 39 38 38 38 38 38 38 38 37 36 34 34 34 35 37 42 46 48 50 52 53 54 54 53
50 50 51 52 52 53 53 53 52 52 51 50 48 47 47 46 45 45 44 43 42 41 41 40 40 39 38 37 35 34 33 33 35 37 40 44 46 49 49 49 51 52 52
51 53 54 55 55 56 56 55 55 55 54 52 51 50 50 49 48 48 47 47 46 44 43 42 41 40 39 38 36 34 33 33 34 37 41 44 47 50 49 47 47 50 51
54 56 57 58 58 58 57 57 56 55 54 53 52 51 50 49 49 48 48 47 47 46 45 44 42 41 40 39 37 35 34 34 34 35 39 42 47 49 49 48 47 47 49
58 59 60 60 60 60 58 56 54 52 50 49 49 48 48 47 47 46 46 45 45 45 44 44 43 42 41 40 39 36 35 35 35 35 36 39 42 46 47 48 48 47 47
60 61 61 60 59 57 54 51 50 49 49 49 49 49 48 47 46 45 44 44 43 42 42 42 42 42 42 41 40 38 36 36 36 37 36 37 39 42 44 45 47 47 47
62 62 60 59 56 53 50 49 49 50 50 50 49 49 48 47 46 45 43 42 40 40 39 39 40 41 42 42 42 40 38 38 38 38 38 39 39 41 43 44 46 47 48
61 60 58 54 50 49 48 48 49 49 50 51 51 50 49 48 47 45 43 40 38 37 36 36 37 39 41 43 43 42 40 39 39 39 39 40 40 41 42 44 45 47 48
59 57 53 50 48 47 47 48 50 51 53 53 53 52 51 50 48 46 43 41 38 35 33 33 34 36 39 42 43 44 42 41 41 41 41 41 41 42 43 44 46 48 49
56 52 49 47 46 47 48 50 52 54 55 55 55 54 53 51 49 47 45 42 39 36 33 31 31 32 35 39 43 44 44 43 43 43 43 43 43 43 44 45 46 48 49
52 48 45 45 47 49 51 52 54 55 56 56 55 54 53 52 51 49 46 43 40 37 33 31 29 29 31 34 39 43 45 45 44 45 46 45 45 44 45 45 46 47 49
48 44 44 45 48 50 52 54 56 57 57 57 56 55 54 52 51 50 48 45 41 38 34 31 29 27 27 29 33 38 42 45 45 46 47 47 47 47 46 46 47 48 48
44 43 44 46 49 52 54 55 57 58 58 57 56 56 55 54 53 51 50 47 43 40 35 31 28 26 25 26 28 31 36 41 45 47 47 48 48 48 48 48 47 48 48
42 43 45 47 50 53 55 57 58 59 58 57 56 57 57 56 56 54 51 48 45 40 36 32 29 26 24 23 24 25 29 34 40 44 47 48 49 50 50 50 49 49 49
Wind_Direction
307 305 303 300 298 295 293 290 288 285 282 280 277 274 272 271 270 268 267 265 263 261 260 259 258 257 256 255 253 251 250 248 248 248 247 247 247 246 246 246 245 245 244
308 306 304 302 299 296 294 291 288 285 283 279 276 273 270 268 266 266 265 264 263 261 260 258 258 257 257 256 255 254 252 250 249 248 248 247 246 247 247 246 246 246 245
309 307 306 304 302 299 297 294 291 288 286 283 279 276 273 270 267 265 263 262 261 260 260 259 259 258 258 257 256 256 254 253 251 250 249 247 246 245 246 247 247 246 246
312 310 308 306 303 301 299 298 297 296 294 292 289 285 281 277 273 270 267 266 264 262 261 260 260 260 259 259 258 257 256 255 253 252 251 249 248 246 244 245 246 246 246
314 312 310 307 306 305 304 303 303 302 302 301 299 296 292 287 282 278 274 271 269 267 265 263 261 261 261 260 260 259 258 256 254 253 253 252 250 248 246 244 244 245 245
315 313 312 310 310 309 309 309 309 309 309 308 306 303 299 295 290 284 279 274 271 268 267 265 264 263 262 261 260 259 258 257 255 254 253 252 251 250 248 247 244 244 244
317 316 315 315 315 316 317 317 317 316 316 315 314 311 307 302 296 288 281 275 270 266 264 263 263 262 260 259 258 257 256 255 254 253 252 252 251 251 249 248 246 245 244
320 320 321 322 323 324 324 324 324 323 323 322 320 318 314 309 303 296 288 281 274 269 266 266 266 265 263 262 259 257 254 252 251 250 249 249 249 249 249 249 248 246 244
324 325 327 327 328 328 328 328 329 328 327 327 326 323 320 315 310 304 296 289 283 278 275 274 274 273 272 270 267 263 259 254 250 248 247 246 246 247 247 247 247 247 245
328 329 330 331 331 331 331 331 331 330 329 327 325 324 320 316 312 306 300 294 291 287 283 282 281 281 279 277 275 272 266 259 253 248 244 243 243 244 244 245 245 245 245
330 331 332 332 331 331 330 329 328 327 326 325 322 320 317 313 309 305 301 296 292 289 287 286 285 284 282 280 280 277 273 264 256 248 241 238 237 237 237 239 240 241 242
331 332 332 331 330 328 327 326 325 324 323 321 318 316 313 309 306 303 299 296 293 290 288 286 285 284 283 281 280 278 274 266 255 244 235 230 230 230 233 234 235 236 238
331 332 331 329 327 325 324 322 321 320 318 316 314 311 308 305 302 300 297 294 292 290 288 286 285 283 282 281 278 275 272 264 253 244 234 229 228 227 229 230 232 233 234
331 331 330 328 326 324 322 321 319 317 315 313 311 308 305 302 299 296 294 292 289 288 286 285 283 282 280 278 275 272 268 262 253 245 239 234 228 224 224 226 229 230 231
330 330 329 328 326 325 323 321 319 317 315 313 311 308 305 302 298 295 292 289 287 285 283 281 280 279 278 275 272 267 263 260 254 248 243 238 233 227 227 226 228 229 230
330 330 329 328 327 326 324 322 321 320 318 317 315 313 310 307 303 299 295 291 287 283 280 278 276 276 274 272 268 263 259 257 253 249 245 241 238 235 234 231 229 229 231
331 331 330 329 328 328 327 326 326 326 326 325 323 321 318 315 311 306 301 296 290 285 280 276 273 271 270 268 265 260 255 253 251 248 245 241 240 239 238 236 233 231 231
331 331 331 330 331 331 332 333 333 333 332 330 329 327 325 322 318 314 309 303 296 289 282 276 270 267 265 264 262 258 252 249 248 245 243 241 239 238 238 237 235 233 232
333 333 333 333 334 336 337 337 337 336 335 335 333 332 330 327 324 320 315 310 303 295 286 278 270 265 262 259 258 255 250 246 245 243 242 241 239 237 237 236 235 233 231
334 334 335 337 339 340 340 341 341 341 341 339 337 335 333 331 329 326 322 317 311 303 294 283 273 265 260 257 255 252 247 244 242 241 239 238 238 236 235 234 233 231 230
336 337 338 341 342 344 345 345 344 343 342 340 339 337 335 333 331 329 326 322 317 311 303 292 280 268 260 256 253 250 246 242 240 239 238 236 235 235 233 231 231 230 229
338 340 342 345 346 347 347 346 345 344 343 342 340 339 337 335 333 331 328 324 320 316 309 301 290 276 264 256 252 250 246 242 239 238 236 235 234 233 233 231 231 230 228
341 344 347 349 349 349 348 348 347 346 346 345 344 342 341 339 336 333 329 325 321 317 311 304 296 285 272 261 253 249 247 243 239 237 235 234 234 233 233 232 231 230 229
345 348 350 351 351 351 350 350 349 349 349 348 348 347 345 344 341 337 333 328 322 317 312 306 299 290 280 269 258 251 247 244 240 237 235 234 233 233 233 232 231 230 230
349 351 352 353 354 353 352 352 352 352 352 352 352 351 349 347 344 341 336 330 324 318 312 306 298 291 284 276 266 256 249 244 241 239 237 235 233 232 232 232 231 230 230
352 353 354 355 355 355 354 354 354 354 354 355 355 354 352 350 348 344 340 333 326 318 311 305 298 291 284 278 271 263 255 248 243 240 238 236 234 232 231 231 231 231 230
Height
5760 5752 5743 5734 5726 5717 5708 5700 5692 5685 5678 5673 5668 5664 5660 5657 5654 5651 5649 5648 5648 5648 5649 5651 5654 5656 5659 5662 5665 5668 5672 5677 5680 5684 5689 5693 5697 5702 5707 5711 5716 5721 5725
5747 5737 5726 5717 5707 5697 5688 5679 5670 5662 5654 5648 5642 5638 5635 5633 5631 5629 5627 5625 5625 5626 5627 5629 5632 5634 5638 5642 5644 5648 5652 5658 5661 5666 5670 5675 5682 5687 5690 5695 5700 5705 5710
5731 5720 5708 5697 5685 5674 5663 5653 5643 5634 5626 5620 5614 5610 5607 5605 5603 5602 5602 5601 5601 5602 5604 5606 5609 5612 5616 5620 5623 5626 5631 5636 5641 5645 5650 5656 5664 5669 5673 5678 5683 5688 5694
5713 5700 5688 5675 5661 5649 5637 5626 5616 5606 5598 5591 5585 5580 5577 5576 5575 5575 5576 5576 5576 5577 5579 5583 5585 5589 5592 5596 5601 5604 5608 5613 5619 5624 5629 5635 5642 5648 5656 5661 5665 5671 5676
5695 5681 5667 5653 5639 5627 5615 5604 5594 5585 5576 5568 5560 5555 5551 5549 5548 5549 5550 5551 5552 5553 5555 5559 5562 5566 5569 5572 5576 5581 5585 5590 5596 5601 5607 5612 5619 5626 5634 5642 5648 5653 5658
5678 5663 5649 5635 5622 5609 5598 5588 5578 5569 5561 5552 5544 5538 5533 5530 5528 5527 5528 5530 5531 5531 5533 5536 5539 5542 5546 5549 5552 5556 5560 5565 5571 5577 5583 5589 5596 5604 5611 5619 5627 5634 5640
5661 5647 5633 5620 5608 5596 5585 5576 5566 5558 5549 5541 5533 5526 5521 5518 5515 5514 5514 5514 5515 5515 5516 5518 5520 5522 5524 5526 5529 5532 5536 5540 5546 5552 5558 5565 5572 5579 5587 5595 5604 5612 5621
5646 5632 5619 5607 5595 5585 5576 5567 5558 5549 5541 5533 5526 5519 5514 5510 5507 5505 5504 5504 5504 5504 5504 5505 5506 5506 5507 5507 5508 5510 5512 5516 5520 5526 5533 5540 5547 5554 5563 5571 5580 5589 5598
5634 5621 5609 5597 5587 5577 5568 5559 5550 5542 5534 5526 5520 5514 5508 5504 5501 5498 5496 5495 5495 5494 5494 5494 5493 5493 5492 5492 5491 5491 5492 5494 5497 5502 5508 5515 5523 5530 5538 5546 5555 5565 5575
5624 5612 5601 5590 5580 5571 5561 5552 5544 5535 5528 5520 5514 5508 5503 5499 5495 5492 5490 5487 5486 5484 5484 5483 5481 5480 5479 5478 5477 5476 5475 5475 5477 5481 5487 5495 5503 5510 5517 5524 5532 5540 5551
5616 5604 5594 5583 5574 5564 5555 5547 5538 5530 5523 5515 5509 5503 5498 5493 5489 5485 5482 5479 5477 5474 5473 5471 5469 5467 5466 5464 5463 5461 5460 5460 5460 5463 5469 5477 5485 5493 5499 5506 5513 5520 5529
5607 5597 5587 5577 5567 5558 5549 5541 5532 5524 5516 5509 5502 5496 5490 5485 5481 5476 5472 5469 5466 5463 5461 5459 5457 5454 5453 5451 5450 5448 5447 5446 5446 5449 5454 5461 5469 5477 5483 5490 5496 5503 5511
5601 5591 5580 5570 5561 5551 5542 5533 5524 5516 5508 5500 5493 5487 5481 5475 5470 5465 5461 5457 5454 5451 5448 5445 5443 5441 5439 5438 5437 5436 5435 5434 5435 5437 5441 5447 5454 5461 5468 5474 5481 5489 5496
5595 5585 5574 5563 5553 5543 5533 5523 5514 5505 5497 5489 5482 5475 5468 5463 5457 5452 5448 5444 5440 5437 5434 5431 5429 5427 5426 5425 5424 5424 5423 5423 5424 5426 5429 5433 5439 5447 5454 5460 5467 5474 5482
5589 5578 5567 5556 5545 5534 5523 5513 5503 5493 5484 5476 5468 5461 5454 5448 5442 5437 5432 5428 5425 5422 5419 5417 5415 5413 5411 5411 5411 5411 5412 5412 5413 5415 5418 5422 5426 5432 5439 5446 5454 5461 5469
5582 5570 5558 5547 5535 5524 5512 5501 5491 5481 5471 5462 5454 5446 5439 5432 5426 5420 5416 5411 5408 5405 5403 5401 5399 5398 5397 5396 5397 5398 5400 5401 5403 5404 5407 5411 5415 5420 5426 5434 5441 5449 5456
5573 5561 5549 5536 5524 5512 5501 5490 5479 5469 5460 5450 5442 5433 5425 5418 5410 5404 5399 5394 5390 5388 5385 5384 5383 5382 5382 5381 5382 5385 5388 5390 5391 5393 5396 5399 5403 5408 5414 5422 5429 5437 5444
5565 5552 5540 5527 5515 5503 5491 5480 5470 5460 5451 5441 5432 5423 5414 5406 5398 5391 5384 5378 5374 5370 5368 5367 5366 5366 5366 5367 5368 5371 5374 5377 5379 5382 5385 5389 5393 5397 5403 5410 5417 5424 5431
5556 5543 5530 5518 5506 5495 5484 5474 5464 5454 5444 5433 5424 5414 5405 5396 5387 5379 5371 5365 5359 5355 5352 5350 5350 5350 5350 5351 5353 5356 5360 5364 5367 5370 5373 5377 5381 5386 5392 5398 5405 5412 5418
5547 5534 5522 5510 5499 5489 5479 5469 5458 5448 5438 5427 5416 5406 5396 5386 5377 5368 5360 5353 5346 5341 5337 5335 5334 5334 5334 5335 5337 5340 5345 5350 5353 5357 5361 5365 5369 5374 5380 5386 5392 5398 5405
5539 5527 5515 5505 5495 5485 5475 5464 5454 5443 5431 5420 5408 5397 5387 5377 5367 5357 5349 5341 5335 5329 5324 5321 5319 5318 5319 5319 5321 5324 5329 5335 5339 5343 5348 5352 5357 5362 5367 5373 5379 5385 5392
5533 5521 5511 5500 5491 5481 5471 5460 5449 5438 5425 5413 5401 5389 5378 5367 5357 5348 5339 5330 5324 5318 5313 5309 5305 5304 5304 5305 5306 5309 5313 5319 5325 5329 5334 5339 5344 5349 5355 5360 5366 5373 5379
5528 5517 5507 5498 5488 5478 5468 5457 5445 5433 5420 5407 5394 5382 5370 5358 5347 5337 5328 5320 5313 5307 5302 5297 5294 5291 5290 5290 5292 5294 5298 5303 5309 5314 5319 5325 5330 5336 5342 5348 5354 5360 5367
5525 5515 5506 5496 5486 5475 5464 5452 5440 5428 5415 5401 5389 5376 5364 5352 5340 5328 5318 5309 5301 5295 5290 5286 5282 5279 5277 5276 5278 5280 5283 5288 5293 5299 5304 5310 5316 5322 5328 5334 5340 5347 5353
5522 5513 5504 5494 5484 5473 5461 5449 5436 5424 5411 5397 5384 5371 5359 5346 5334 5321 5309 5298 5290 5282 5277 5273 5271 5268 5266 5265 5265 5266 5269 5272 5277 5283 5289 5295 5302 5308 5314 5321 5327 5334 5340
5520 5511 5502 5492 5482 5471 5459 5446 5433 5420 5407 5394 5381 5368 5354 5340 5327 5314 5302 5288 5277 5269 5263 5259 5257 5256 5255 5254 5254 5254 5256 5259 5263 5268 5274 5280 5286 5293 5300 5307 5314 5320 5327